カタログに戻る

STARLINK-30840

運用中通信VLEO
NORAD 58223·PAYLOAD·🇺🇸 United States

打ち上げ Nov 3, 2023 から Cape Canaveral Space Force Station

Loading…

次のパス (今後24時間)

TLE

最新Source: CelesTrak SupGP

元期: Sep 14, 2026, 20:56 UTC

1 58223C 23170T   26257.87270833  .00020628  00000+0  74721-3 0  2571
2 58223  43.0021 206.1488 0001287 258.4582 277.9140 15.27565020    17

AllMySatでSTARLINK-30840をリアルタイム追跡

Download on the App Store